| time (UTC) | temp F | wind direction | speed MPH | gust MPH | rain 1hr in | rain 24hr in | rain mn in | humidity % | barometer mb |
| 20260831132124 | 54 | 0 | 0.0 | 0.0 | 0.00 | 0.00 | 0.00 | 88 | 1014.3 |
| 20260831131143 | 54 | 0 | 0.0 | 0.0 | 0.00 | 0.00 | 0.00 | 88 | 1014.3 |
| 20260831130122 | 54 | 0 | 0.0 | 0.0 | 0.00 | 0.00 | 0.00 | 88 | 1014.3 |
| 20260831125122 | 55 | 0 | 0.0 | 0.0 | 0.00 | 0.00 | 0.00 | 89 | 1014.4 |
| 20260831124124 | 55 | 0 | 0.0 | 0.0 | 0.00 | 0.00 | 0.00 | 89 | 1014.5 |
| 20260831123122 | 55 | 0 | 0.0 | 0.0 | 0.00 | 0.00 | 0.00 | 89 | 1014.6 |
| 20260831122122 | 55 | 0 | 0.0 | 0.0 | 0.00 | 0.00 | 0.00 | 89 | 1014.7 |
| 20260831121122 | 55 | 0 | 0.0 | 0.0 | 0.00 | 0.00 | 0.00 | 89 | 1014.6 |
| 20260831120145 | 55 | 0 | 0.0 | 0.0 | 0.00 | 0.00 | 0.00 | 89 | 1014.7 |
| 20260831115122 | 55 | 0 | 0.0 | 0.0 | 0.00 | 0.00 | 0.00 | 89 | 1014.8 |
| 20260831114124 | 55 | 180 | 0.0 | 2.0 | 0.00 | 0.00 | 0.00 | 89 | 1014.8 |
| 20260831113145 | 55 | 171 | 0.0 | 2.0 | 0.00 | 0.00 | 0.00 | 88 | 1015.0 |
| 20260831112124 | 56 | 88 | 0.0 | 2.0 | 0.00 | 0.00 | 0.00 | 87 | 1015.1 |
| 20260831111122 | 56 | 0 | 0.0 | 0.0 | 0.00 | 0.00 | 0.00 | 87 | 1015.1 |
| 20260831110122 | 56 | 0 | 0.0 | 0.0 | 0.00 | 0.00 | 0.00 | 86 | 1015.2 |
| 20260831105122 | 56 | 0 | 0.0 | 2.0 | 0.00 | 0.00 | 0.00 | 87 | 1015.3 |
| 20260831104122 | 57 | 0 | 0.0 | 0.0 | 0.00 | 0.00 | 0.00 | 86 | 1015.3 |
| 20260831103143 | 57 | 108 | 0.0 | 5.0 | 0.00 | 0.00 | 0.00 | 86 | 1015.4 |
| 20260831102124 | 57 | 116 | 0.0 | 3.0 | 0.00 | 0.00 | 0.00 | 86 | 1015.4 |
| 20260831101123 | 57 | 116 | 1.0 | 5.0 | 0.00 | 0.00 | 0.00 | 86 | 1015.3 |
| 20260831100122 | 57 | 116 | 1.0 | 6.0 | 0.00 | 0.00 | 0.00 | 86 | 1015.5 |
| 20260831095122 | 57 | 127 | 1.0 | 5.0 | 0.00 | 0.00 | 0.00 | 86 | 1015.6 |
| 20260831094124 | 57 | 94 | 0.0 | 3.0 | 0.00 | 0.00 | 0.00 | 86 | 1015.8 |
| 20260831093143 | 57 | 112 | 0.0 | 5.0 | 0.00 | 0.00 | 0.00 | 86 | 1015.9 |
| 20260831092125 | 57 | 128 | 2.0 | 6.0 | 0.00 | 0.00 | 0.00 | 86 | 1016.1 |
| 20260831091122 | 57 | 122 | 2.0 | 6.0 | 0.00 | 0.00 | 0.00 | 85 | 1016.1 |
| 20260831090124 | 57 | 125 | 1.0 | 5.0 | 0.00 | 0.00 | 0.00 | 85 | 1016.1 |
| 20260831085144 | 57 | 91 | 0.0 | 2.0 | 0.00 | 0.00 | 0.00 | 86 | 1016.3 |
| 20260831084124 | 57 | 125 | 1.0 | 5.0 | 0.00 | 0.00 | 0.00 | 86 | 1016.3 |
| 20260831083124 | 57 | 128 | 1.0 | 3.0 | 0.00 | 0.00 | 0.00 | 87 | 1016.4 |
| 20260831082124 | 57 | 128 | 0.0 | 3.0 | 0.00 | 0.00 | 0.00 | 87 | 1016.5 |
| 20260831081122 | 58 | 142 | 0.0 | 3.0 | 0.00 | 0.00 | 0.00 | 86 | 1016.6 |
| 20260831080124 | 58 | 0 | 0.0 | 0.0 | 0.00 | 0.00 | 0.00 | 85 | 1016.7 |
| 20260831075124 | 58 | 0 | 0.0 | 2.0 | 0.00 | 0.00 | 0.00 | 85 | 1016.8 |
| 20260831074122 | 58 | 0 | 0.0 | 2.0 | 0.00 | 0.00 | 0.00 | 86 | 1016.8 |
| 20260831073122 | 59 | 127 | 0.0 | 2.0 | 0.00 | 0.00 | 0.00 | 85 | 1016.8 |
| 20260831072145 | 59 | 136 | 0.0 | 2.0 | 0.00 | 0.00 | 0.00 | 84 | 1016.9 |
| 20260831071125 | 59 | 0 | 0.0 | 0.0 | 0.00 | 0.00 | 0.00 | 83 | 1017.0 |
| 20260831070122 | 59 | 127 | 0.0 | 2.0 | 0.00 | 0.00 | 0.00 | 84 | 1016.8 |
| 20260831065126 | 59 | 0 | 0.0 | 0.0 | 0.00 | 0.00 | 0.00 | 84 | 1016.9 |
| 20260831064122 | 59 | 128 | 0.0 | 3.0 | 0.00 | 0.00 | 0.00 | 84 | 1016.9 |
| 20260831063124 | 59 | 126 | 2.0 | 6.0 | 0.00 | 0.00 | 0.00 | 83 | 1017.0 |
| 20260831062123 | 60 | 122 | 1.0 | 5.0 | 0.00 | 0.00 | 0.00 | 82 | 1017.0 |
| 20260831061122 | 60 | 125 | 0.0 | 3.0 | 0.00 | 0.00 | 0.00 | 82 | 1017.1 |
| 20260831060122 | 60 | 129 | 1.0 | 3.0 | 0.00 | 0.00 | 0.00 | 82 | 1017.1 |
| 20260831055143 | 60 | 127 | 1.0 | 3.0 | 0.00 | 0.00 | 0.00 | 82 | 1017.2 |
| 20260831054124 | 61 | 0 | 0.0 | 0.0 | 0.00 | 0.00 | 0.00 | 82 | 1017.3 |
| 20260831053122 | 61 | 110 | 0.0 | 5.0 | 0.00 | 0.00 | 0.00 | 82 | 1017.3 |
| 20260831052122 | 61 | 110 | 0.0 | 5.0 | 0.00 | 0.00 | 0.00 | 82 | 1017.5 |
| 20260831051122 | 61 | 125 | 0.0 | 3.0 | 0.00 | 0.00 | 0.00 | 81 | 1017.5 |
| 20260831050127 | 61 | 127 | 2.0 | 6.0 | 0.00 | 0.00 | 0.00 | 80 | 1017.6 |
| 20260831045143 | 62 | 128 | 3.0 | 8.0 | 0.00 | 0.00 | 0.00 | 79 | 1017.7 |
| 20260831044124 | 62 | 115 | 1.0 | 6.0 | 0.00 | 0.00 | 0.00 | 78 | 1017.7 |
| 20260831043122 | 62 | 128 | 0.0 | 3.0 | 0.00 | 0.00 | 0.00 | 77 | 1017.7 |
| 20260831042122 | 63 | 0 | 0.0 | 0.0 | 0.00 | 0.00 | 0.00 | 77 | 1017.8 |
| 20260831041122 | 63 | 0 | 0.0 | 0.0 | 0.00 | 0.00 | 0.00 | 76 | 1017.9 |
| 20260831040122 | 63 | 0 | 0.0 | 0.0 | 0.00 | 0.00 | 0.00 | 76 | 1017.8 |
| 20260831035123 | 63 | 0 | 0.0 | 0.0 | 0.00 | 0.00 | 0.00 | 75 | 1017.8 |
| 20260831034123 | 64 | 135 | 0.0 | 5.0 | 0.00 | 0.00 | 0.00 | 75 | 1017.7 |
| 20260831033122 | 64 | 132 | 0.0 | 3.0 | 0.00 | 0.00 | 0.00 | 73 | 1017.6 |
| 20260831032122 | 64 | 0 | 0.0 | 0.0 | 0.00 | 0.00 | 0.00 | 71 | 1017.6 |
| 20260831031145 | 64 | 175 | 0.0 | 5.0 | 0.00 | 0.00 | 0.00 | 70 | 1017.6 |
| 20260831030124 | 64 | 0 | 0.0 | 0.0 | 0.00 | 0.00 | 0.00 | 69 | 1017.6 |
| 20260831025122 | 64 | 0 | 0.0 | 0.0 | 0.00 | 0.00 | 0.00 | 69 | 1017.7 |
| 20260831024122 | 65 | 0 | 0.0 | 0.0 | 0.00 | 0.00 | 0.00 | 68 | 1017.7 |
| 20260831023143 | 65 | 279 | 0.0 | 2.0 | 0.00 | 0.00 | 0.00 | 68 | 1017.6 |
| 20260831022122 | 65 | 281 | 0.0 | 5.0 | 0.00 | 0.00 | 0.00 | 67 | 1017.6 |
| 20260831021123 | 65 | 275 | 0.0 | 5.0 | 0.00 | 0.00 | 0.00 | 67 | 1017.6 |
| 20260831020124 | 65 | 257 | 1.0 | 6.0 | 0.00 | 0.00 | 0.00 | 66 | 1017.6 |
| 20260831015122 | 65 | 273 | 1.0 | 6.0 | 0.00 | 0.00 | 0.00 | 67 | 1017.7 |
| 20260831014122 | 65 | 281 | 2.0 | 8.0 | 0.00 | 0.00 | 0.00 | 67 | 1017.7 |
| 20260831013124 | 66 | 288 | 1.0 | 5.0 | 0.00 | 0.00 | 0.00 | 67 | 1017.7 |
| 20260831012122 | 66 | 279 | 0.0 | 5.0 | 0.00 | 0.00 | 0.00 | 66 | 1017.8 |
| 20260831011122 | 66 | 0 | 0.0 | 0.0 | 0.00 | 0.00 | 0.00 | 67 | 1017.9 |
| 20260831010122 | 66 | 0 | 0.0 | 2.0 | 0.00 | 0.00 | 0.00 | 67 | 1018.1 |
| 20260831005143 | 66 | 56 | 0.0 | 3.0 | 0.00 | 0.00 | 0.00 | 66 | 1018.1 |
| 20260831004124 | 67 | 31 | 1.0 | 5.0 | 0.00 | 0.00 | 0.00 | 67 | 1018.2 |
| 20260831003148 | 67 | 20 | 0.0 | 3.0 | 0.00 | 0.00 | 0.00 | 66 | 1018.1 |
| 20260831002122 | 67 | 48 | 0.0 | 3.0 | 0.00 | 0.00 | 0.00 | 66 | 1018.2 |
| 20260831001124 | 67 | 51 | 0.0 | 5.0 | 0.00 | 0.00 | 0.00 | 66 | 1018.2 |
| 20260831000122 | 66 | 59 | 0.0 | 5.0 | 0.00 | 0.00 | 0.00 | 67 | 1018.4 |
| 20260830235122 | 66 | 36 | 1.0 | 6.0 | 0.00 | 0.00 | 0.00 | 68 | 1018.4 |
| 20260830234122 | 66 | 10 | 1.0 | 5.0 | 0.00 | 0.00 | 0.00 | 69 | 1018.4 |
| 20260830233122 | 66 | 21 | 2.0 | 6.0 | 0.00 | 0.00 | 0.00 | 68 | 1018.5 |
| 20260830232143 | 66 | 20 | 1.0 | 5.0 | 0.00 | 0.00 | 0.00 | 69 | 1018.6 |
| 20260830231122 | 66 | 18 | 3.0 | 8.0 | 0.00 | 0.00 | 0.00 | 69 | 1018.7 |
| 20260830230122 | 66 | 31 | 2.0 | 6.0 | 0.00 | 0.00 | 0.00 | 68 | 1018.6 |
| 20260830225122 | 67 | 11 | 1.0 | 8.0 | 0.00 | 0.00 | 0.00 | 67 | 1018.7 |
| 20260830224124 | 67 | 0 | 0.0 | 0.0 | 0.00 | 0.00 | 0.00 | 66 | 1018.8 |
| 20260830223122 | 67 | 89 | 0.0 | 5.0 | 0.00 | 0.00 | 0.00 | 66 | 1018.8 |
| 20260830222124 | 66 | 66 | 1.0 | 8.0 | 0.00 | 0.00 | 0.00 | 68 | 1018.9 |
| 20260830221122 | 66 | 42 | 1.0 | 5.0 | 0.00 | 0.00 | 0.00 | 69 | 1018.9 |
| 20260830220122 | 65 | 99 | 1.0 | 6.0 | 0.00 | 0.00 | 0.00 | 70 | 1018.9 |
| 20260830215122 | 65 | 69 | 1.0 | 6.0 | 0.00 | 0.00 | 0.00 | 70 | 1018.9 |
| 20260830214123 | 65 | 75 | 2.0 | 11.0 | 0.00 | 0.00 | 0.00 | 72 | 1019.0 |
| 20260830213122 | 64 | 73 | 2.0 | 6.0 | 0.00 | 0.00 | 0.00 | 72 | 1019.1 |
| 20260830212122 | 64 | 69 | 1.0 | 6.0 | 0.00 | 0.00 | 0.00 | 73 | 1019.1 |
| 20260830211143 | 64 | 97 | 1.0 | 10.0 | 0.00 | 0.00 | 0.00 | 73 | 1019.2 |
| 20260830210122 | 64 | 70 | 1.0 | 6.0 | 0.00 | 0.00 | 0.00 | 73 | 1019.1 |
| 20260830205123 | 64 | 111 | 2.0 | 8.0 | 0.00 | 0.00 | 0.00 | 73 | 1019.1 |
| 20260830204122 | 63 | 109 | 2.0 | 10.0 | 0.00 | 0.00 | 0.00 | 73 | 1019.2 |
| 20260830203127 | 63 | 102 | 1.0 | 6.0 | 0.00 | 0.00 | 0.00 | 74 | 1019.1 |
| 20260830202122 | 63 | 110 | 2.0 | 6.0 | 0.00 | 0.00 | 0.00 | 73 | 1019.1 |
| 20260830201122 | 63 | 80 | 1.0 | 8.0 | 0.00 | 0.00 | 0.00 | 74 | 1019.2 |
| 20260830200124 | 63 | 109 | 1.0 | 13.0 | 0.00 | 0.00 | 0.00 | 74 | 1019.1 |
| 20260830195145 | 62 | 116 | 2.0 | 10.0 | 0.00 | 0.00 | 0.00 | 75 | 1019.1 |
| 20260830194122 | 62 | 123 | 2.0 | 10.0 | 0.00 | 0.00 | 0.00 | 75 | 1019.1 |
| 20260830193124 | 62 | 121 | 1.0 | 13.0 | 0.00 | 0.00 | 0.00 | 75 | 1019.2 |
| 20260830192122 | 62 | 136 | 2.0 | 10.0 | 0.00 | 0.00 | 0.00 | 74 | 1019.3 |
| 20260830191122 | 62 | 113 | 2.0 | 6.0 | 0.00 | 0.00 | 0.00 | 74 | 1019.2 |
| 20260830190143 | 62 | 125 | 2.0 | 10.0 | 0.00 | 0.00 | 0.00 | 74 | 1019.3 |
| 20260830185124 | 62 | 96 | 3.0 | 11.0 | 0.00 | 0.00 | 0.00 | 75 | 1019.3 |
| 20260830184122 | 62 | 112 | 3.0 | 11.0 | 0.00 | 0.00 | 0.00 | 76 | 1019.4 |
| 20260830183124 | 61 | 126 | 3.0 | 13.0 | 0.00 | 0.00 | 0.00 | 76 | 1019.4 |
| 20260830182122 | 61 | 118 | 2.0 | 11.0 | 0.00 | 0.00 | 0.00 | 77 | 1019.5 |
| 20260830181124 | 61 | 96 | 2.0 | 13.0 | 0.00 | 0.00 | 0.00 | 77 | 1019.4 |
| 20260830180123 | 61 | 119 | 3.0 | 10.0 | 0.00 | 0.00 | 0.00 | 77 | 1019.2 |
| 20260830175125 | 61 | 102 | 2.0 | 13.0 | 0.00 | 0.00 | 0.00 | 76 | 1019.2 |
| 20260830174124 | 61 | 111 | 2.0 | 11.0 | 0.00 | 0.00 | 0.00 | 77 | 1019.2 |
| 20260830173122 | 61 | 113 | 2.0 | 14.0 | 0.00 | 0.00 | 0.00 | 78 | 1019.3 |
| 20260830172122 | 61 | 105 | 2.0 | 11.0 | 0.00 | 0.00 | 0.00 | 78 | 1019.2 |
| 20260830171143 | 61 | 114 | 3.0 | 11.0 | 0.00 | 0.00 | 0.00 | 78 | 1019.2 |
| 20260830170122 | 60 | 94 | 3.0 | 10.0 | 0.00 | 0.00 | 0.00 | 79 | 1019.0 |
| 20260830165122 | 60 | 120 | 2.0 | 11.0 | 0.00 | 0.00 | 0.00 | 79 | 1019.2 |
| 20260830164122 | 60 | 118 | 2.0 | 6.0 | 0.00 | 0.00 | 0.00 | 80 | 1019.2 |
| 20260830163122 | 59 | 124 | 2.0 | 11.0 | 0.00 | 0.00 | 0.00 | 80 | 1019.2 |
| 20260830162123 | 59 | 118 | 2.0 | 6.0 | 0.00 | 0.00 | 0.00 | 82 | 1019.3 |
| 20260830161122 | 58 | 124 | 3.0 | 8.0 | 0.00 | 0.00 | 0.00 | 83 | 1019.3 |
| 20260830160122 | 58 | 125 | 4.0 | 11.0 | 0.00 | 0.00 | 0.00 | 84 | 1019.1 |
| 20260830155128 | 58 | 127 | 3.0 | 10.0 | 0.00 | 0.00 | 0.00 | 84 | 1019.1 |
| 20260830154124 | 57 | 132 | 4.0 | 11.0 | 0.00 | 0.00 | 0.00 | 84 | 1019.1 |
| 20260830153122 | 57 | 127 | 3.0 | 11.0 | 0.00 | 0.00 | 0.00 | 84 | 1019.1 |
| 20260830152122 | 57 | 126 | 4.0 | 10.0 | 0.00 | 0.00 | 0.00 | 85 | 1019.1 |
| 20260830151122 | 58 | 126 | 3.0 | 10.0 | 0.00 | 0.00 | 0.00 | 84 | 1019.0 |
| 20260830150122 | 58 | 126 | 2.0 | 13.0 | 0.00 | 0.00 | 0.00 | 83 | 1019.0 |
| 20260830145124 | 58 | 124 | 3.0 | 10.0 | 0.00 | 0.00 | 0.00 | 81 | 1019.0 |
| 20260830144143 | 58 | 123 | 2.0 | 8.0 | 0.00 | 0.00 | 0.00 | 81 | 1018.9 |
| 20260830143122 | 58 | 122 | 3.0 | 10.0 | 0.00 | 0.00 | 0.00 | 80 | 1018.9 |
| 20260830142127 | 58 | 128 | 4.0 | 10.0 | 0.00 | 0.00 | 0.00 | 80 | 1018.8 |
| 20260830141122 | 58 | 123 | 3.0 | 6.0 | 0.00 | 0.00 | 0.00 | 80 | 1018.7 |
| 20260830140145 | 58 | 124 | 2.0 | 10.0 | 0.00 | 0.00 | 0.00 | 80 | 1018.7 |
| 20260830135122 | 58 | 129 | 3.0 | 10.0 | 0.00 | 0.00 | 0.00 | 80 | 1018.5 |
| 20260830134124 | 58 | 128 | 3.0 | 11.0 | 0.00 | 0.00 | 0.00 | 80 | 1018.4 |
| 20260830133145 | 58 | 126 | 4.0 | 10.0 | 0.00 | 0.00 | 0.00 | 80 | 1018.4 |